[[{"header":{"parameterUnit":"m.s-1","parameterCategory":1,"la1":30.2991,"la2":30.254,"lo1":-89.0895,"lo2":-89.0444,"dy":0.0017,"dx":0.0017,"nx":28,"ny":28,"refTime":"2024-03-12T03:00:00:Z","depth":0,"parameterNumber":2,"parameterNumberName":"U-component_of_WINDS"},"data":[0,0,0,0,0,0,0,0,0,0,0,0,0,0,0,0,0,0,0,0,0,0,0,0,0,0,0,0,0,0,0,0,0,0,0,0,0,0,0,0,0,0,0,0,0,0,0,0,0,0,0,0,0,0,0,0,0,0,-2.3718,-2.3718,0,-2.3754,-2.3755,-2.3755,-2.3714,-2.3713,-2.3711,-2.371,-2.3745,-2.3747,-2.3749,0,0,0,0,0,0,0,0,0,0,0,0,0,-2.361,-2.3612,-2.3718,-2.3718,-2.3719,-2.3754,-2.3755,-2.3755,-2.3715,-2.3713,-2.3711,-2.3709,-2.3744,-2.3747,-2.375,0,0,0,0,0,0,0,0,0,0,0,0,0,-2.3652,-2.3613,-2.3718,-2.3703,-2.3702,-2.3754,-2.3755,-2.3756,-2.3715,-2.3713,-2.3711,-2.3708,-2.3743,-2.3746,-2.375,-2.3818,0,0,-2.3761,-2.3762,0,0,0,0,0,0,0,0,-2.365,-2.3656,-2.3705,-2.3704,-2.3703,-2.3728,-2.3729,-2.3776,-2.3716,-2.371,-2.371,-2.3707,-2.3741,-2.3744,-2.3756,-2.382,-2.3821,-2.3761,-2.3763,-2.3765,-2.3766,0,0,0,0,0,0,0,-2.3647,-2.3655,-2.3732,-2.3705,-2.3704,-2.3693,-2.3697,-2.3738,-2.3738,-2.371,-2.3707,-2.3713,-2.374,-2.3753,-2.3757,-2.3822,-2.3761,-2.3764,-2.3766,-2.3768,-2.3942,-2.3944,0,0,0,0,0,0,-2.3646,-2.3652,-2.3731,-2.3733,-2.367,-2.3697,-2.3701,-2.3722,-2.3737,-2.3737,-2.3714,-2.371,-2.3748,-2.3753,-2.3758,-2.3838,-2.3765,-2.3768,-2.377,-2.394,-2.3943,-2.3945,0,0,0,0,0,0,-2.3644,-2.3654,-2.373,-2.3692,-2.3701,-2.3701,-2.3725,-2.3724,-2.3737,-2.374,-2.374,-2.3728,-2.3746,-2.3753,-2.3803,-2.3839,-2.377,-2.3773,-2.3937,-2.3941,-2.3944,-2.3999,0,0,0,0,0,0,-2.3641,-2.3653,-2.368,-2.3693,-2.3703,-2.3776,-2.3727,-2.3726,-2.3743,-2.3739,-2.3753,-2.3753,-2.3745,-2.3798,-2.3807,-2.3842,-2.3776,-2.3933,-2.3938,-2.3943,-2.3994,-2.4004,-2.4013,0,0,0,0,0,-2.3637,-2.3693,-2.3681,-2.3691,-2.3737,-2.3778,-2.3783,-2.3774,-2.3747,-2.3773,-2.3775,-2.3753,-2.3834,-2.3804,-2.3813,-2.385,-2.3931,-2.3937,-2.3942,-2.399,-2.4002,-2.4013,0,0,0,0,0,0,-2.3683,-2.3695,-2.3682,-2.3744,-2.376,-2.3771,-2.3804,-2.3787,-2.3811,-2.3805,-2.3791,-2.3795,-2.3849,-2.3854,-2.3821,-2.3916,-2.3878,-2.3886,-2.3911,-2.3923,-2.3932,-2.3929,-2.3779,0,0,0,0,0,-2.3701,-2.3734,-2.3742,-2.3796,-2.3805,-2.3803,-2.3821,-2.3812,-2.3828,-2.3834,-2.384,-2.3856,-2.3885,-2.3904,-2.3931,-2.3995,-2.3997,-2.4025,-2.4034,-2.4042,-2.4049,-2.4082,-2.4095,-2.3964,-2.3964,-2.3964,0,0,-2.3736,-2.3747,-2.3769,-2.3805,-2.3817,-2.3851,-2.3809,-2.3847,-2.3872,-2.384,-2.3888,-2.3893,-2.391,-2.3967,-2.3993,-2.3974,-2.4085,-2.4049,-2.4056,-2.4058,-2.409,-2.4102,-2.4113,-2.3968,-2.3967,-2.3966,0,0,-2.3819,-2.3831,-2.3877,-2.389,-2.3909,-2.3907,-2.3918,-2.3932,-2.3934,-2.3982,-2.3959,-2.3988,-2.4038,-2.4051,-2.4064,-2.4152,-2.4132,-2.4161,-2.421,-2.4243,-2.4253,-2.4262,-2.4293,-2.4304,-2.4168,-2.4168,-2.4168,0,-2.3861,-2.3913,-2.3903,-2.3942,-2.3959,-2.3932,-2.3978,-2.3991,-2.4017,-2.4028,-2.4007,-2.4069,-2.4079,-2.4138,-2.416,-2.4172,-2.4183,-2.4159,-2.4253,-2.4262,-2.427,-2.4299,-2.431,-2.4171,-2.4171,-2.417,-2.417,0,-2.3963,-2.3999,-2.4034,-2.4061,-2.4081,-2.4124,-2.4119,-2.4141,-2.413,-2.4131,-2.418,-2.419,-2.4218,-2.4232,-2.4222,-2.4291,-2.4278,-2.4255,-2.4216,-2.4286,-2.4313,-2.4324,-2.4176,-2.4175,-2.4174,-2.4173,0,0,-2.4075,-2.4096,-2.4109,-2.4121,-2.414,-2.4167,-2.4208,-2.4236,-2.4255,-2.4274,-2.4307,-2.435,-2.4329,-2.4344,-2.4335,-2.4364,-2.4432,-2.4337,-2.4337,-2.4354,-2.4508,-2.4524,-2.4537,-2.442,-2.4422,-2.4423,-2.4506,0,-2.4158,-2.423,-2.4222,-2.4291,-2.4323,-2.4299,-2.4334,-2.4349,-2.4351,-2.4378,-2.4379,-2.441,-2.438,-2.4388,-2.4416,-2.4418,-2.4463,-2.4412,-2.4449,-2.4451,-2.4445,-2.4552,-2.457,-2.4647,-2.4516,-2.4518,-2.4519,0,-2.4264,-2.4288,-2.436,-2.4373,-2.4387,-2.4419,-2.4444,-2.4471,-2.4487,-2.4486,-2.4503,-2.4488,-2.4529,-2.4489,-2.4544,-2.451,-2.4524,-2.4528,-2.453,-2.4533,-2.4489,-2.4556,-2.4671,-2.4683,-2.4536,-2.4535,-2.4534,0,-2.4337,-2.4387,-2.4437,-2.4448,-2.4465,-2.4488,-2.4496,-2.451,-2.4528,-2.455,-2.4561,-2.4587,-2.4601,-2.4621,-2.4614,-2.4586,-2.467,-2.463,-2.4669,-2.4669,-2.4687,-2.4686,-2.4805,-2.4698,-2.4698,-2.4698,-2.4697,0,-2.443,-2.4475,-2.447,-2.45,-2.4549,-2.454,-2.4588,-2.4593,-2.4606,-2.4636,-2.4616,-2.4645,-2.4634,-2.4661,-2.4656,-2.4702,-2.4708,-2.4708,-2.4706,-2.4709,-2.4709,-2.4718,-2.4712,-2.4701,-2.47,-2.4699,-2.4699,0,-2.452,-2.4519,-2.4571,-2.4584,-2.4588,-2.4623,-2.4633,-2.4661,-2.4662,-2.47,-2.4708,-2.4708,-2.4739,-2.4735,-2.4769,-2.4766,-2.4822,-2.4814,-2.4817,-2.4815,-2.4854,-2.485,-2.4983,-2.4999,-2.4882,-2.4883,-2.4884,0,-2.4579,-2.4613,-2.463,-2.4649,-2.4659,-2.469,-2.4708,-2.47,-2.4719,-2.474,-2.4765,-2.4795,-2.4818,-2.4869,-2.4872,-2.4898,-2.489,-2.4934,-2.4893,-2.4896,-2.4889,-2.4887,-2.489,-2.4942,-2.4944,-2.4945,-2.4946,0,-2.4684,-2.4682,-2.4709,-2.4736,-2.4758,-2.4779,-2.4798,-2.4814,-2.4807,-2.483,-2.4863,-2.4881,-2.4916,-2.4946,-2.497,-2.4977,-2.496,-2.4959,-2.4969,-2.4972,-2.4972,-2.4972,-2.4838,-2.4955,-2.4954,-2.4954,-2.4953,-2.4953,-2.476,-2.4788,-2.4805,-2.4835,-2.4849,-2.4867,-2.4894,-2.4897,-2.4925,-2.4954,-2.4947,-2.4983,-2.4998,-2.5029,-2.5039,-2.5066,-2.505,-2.5065,-2.5068,-2.5072,-2.5076,-2.4969,-2.5071,-2.5071,-2.507,-2.507,-2.507,0,-2.4862,-2.4872,-2.49,-2.4927,-2.4952,-2.4934,-2.4954,-2.4975,-2.5008,-2.5023,-2.5047,-2.5084,-2.5112,-2.5117,-2.5144,-2.5165,-2.5158,-2.5172,-2.517,-2.5172,-2.509,-2.5078,-2.5178,-2.5178,-2.5178,-2.5178,-2.5178,-2.5178,-2.4918,-2.4966,-2.4966,-2.502,-2.5028,-2.5065,-2.5077,-2.5093,-2.5106,-2.5148,-2.5172,-2.5175,-2.5186,-2.5214,-2.5239,-2.5239,-2.525,-2.5267,-2.5265,-2.5188,-2.5178,-2.5167,-2.5156,-2.527,-2.527,-2.5344,-2.5344,-2.5345]},{"header":{"parameterUnit":"m.s-1","parameterCategory":1,"la1":30.2991,"la2":30.254,"lo1":-89.0895,"lo2":-89.0444,"dy":0.0017,"dx":0.0017,"nx":28,"ny":28,"refTime":"2024-03-12T03:00:00:Z","depth":0,"parameterNumber":3,"parameterNumberName":"V-component_of_WINDS"},"data":[0,0,0,0,0,0,0,0,0,0,0,0,0,0,0,0,0,0,0,0,0,0,0,0,0,0,0,0,0,0,0,0,0,0,0,0,0,0,0,0,0,0,0,0,0,0,0,0,0,0,0,0,0,0,0,0,0,0,1.1432,1.1433,0,1.1492,1.1492,1.1493,1.1517,1.1517,1.1517,1.1517,1.1575,1.1577,1.1578,0,0,0,0,0,0,0,0,0,0,0,0,0,1.134,1.1342,1.1432,1.1433,1.1434,1.1491,1.1492,1.1493,1.1517,1.1517,1.1517,1.1517,1.1574,1.1576,1.1578,0,0,0,0,0,0,0,0,0,0,0,0,0,1.1388,1.1342,1.1432,1.1453,1.1455,1.1491,1.1492,1.1493,1.1517,1.1517,1.1517,1.1517,1.1574,1.1576,1.1579,1.1598,0,0,1.1586,1.1587,0,0,0,0,0,0,0,0,1.1385,1.1391,1.1449,1.1451,1.1454,1.1497,1.1481,1.1528,1.1517,1.1494,1.1517,1.1517,1.1549,1.1554,1.1565,1.16,1.1603,1.1587,1.1588,1.1589,1.159,0,0,0,0,0,0,0,1.1382,1.1389,1.1456,1.145,1.1453,1.1459,1.1466,1.149,1.1521,1.1496,1.1498,1.1504,1.155,1.1563,1.1567,1.1604,1.1586,1.1589,1.159,1.1591,1.1661,1.1662,0,0,0,0,0,0,1.1375,1.1386,1.1454,1.1457,1.1419,1.1461,1.1468,1.1483,1.1521,1.1527,1.1505,1.1505,1.1558,1.1564,1.1569,1.1595,1.1589,1.1591,1.1593,1.1661,1.1661,1.1662,0,0,0,0,0,0,1.1373,1.1381,1.1451,1.1422,1.1432,1.1463,1.1479,1.1485,1.1497,1.1528,1.1534,1.1511,1.1558,1.1565,1.1591,1.1597,1.1593,1.1595,1.166,1.1661,1.1662,1.1647,0,0,0,0,0,0,1.137,1.138,1.1387,1.1422,1.1433,1.1473,1.148,1.1486,1.1501,1.1503,1.1536,1.1541,1.1559,1.1587,1.1594,1.1601,1.1597,1.166,1.1661,1.1661,1.1647,1.1647,1.1647,0,0,0,0,0,1.1367,1.138,1.1387,1.1395,1.1443,1.1473,1.1479,1.15,1.1502,1.1509,1.153,1.154,1.1596,1.159,1.1597,1.1605,1.166,1.1661,1.1661,1.1647,1.1647,1.1647,0,0,0,0,0,0,1.1342,1.1384,1.1393,1.1418,1.1442,1.1477,1.1487,1.1499,1.1522,1.1523,1.1547,1.1554,1.1579,1.1595,1.1587,1.1627,1.1629,1.1631,1.1616,1.1616,1.1616,1.1611,1.1599,0,0,0,0,0,1.134,1.1362,1.1397,1.1415,1.1427,1.1455,1.1469,1.1484,1.1509,1.1519,1.1541,1.1565,1.1589,1.1603,1.1626,1.165,1.1659,1.166,1.166,1.1659,1.1661,1.1677,1.1678,1.1664,1.1664,1.1664,0,0,1.1335,1.1361,1.1372,1.1411,1.1431,1.1453,1.1463,1.1485,1.1502,1.1522,1.1548,1.1566,1.1595,1.1621,1.1633,1.1634,1.1667,1.166,1.166,1.1662,1.1678,1.1679,1.168,1.1665,1.1665,1.1665,0,0,1.1337,1.1358,1.1377,1.1398,1.143,1.1449,1.1454,1.1488,1.1501,1.1529,1.1545,1.1565,1.1604,1.1625,1.164,1.1655,1.1665,1.1661,1.1661,1.1676,1.1677,1.1678,1.1684,1.1686,1.1663,1.1663,1.1663,0,1.1326,1.136,1.1385,1.1407,1.1424,1.1446,1.1466,1.1484,1.1521,1.1533,1.1535,1.1587,1.1607,1.1639,1.1643,1.1654,1.1661,1.1657,1.1675,1.1676,1.1678,1.1684,1.1686,1.1662,1.1662,1.1662,1.1662,0,1.1347,1.137,1.1381,1.1419,1.1437,1.1458,1.1486,1.1502,1.1516,1.1536,1.1565,1.1591,1.1621,1.163,1.1642,1.1664,1.1665,1.167,1.1672,1.1678,1.1684,1.1687,1.1661,1.1662,1.1662,1.1662,0,0,1.1332,1.1385,1.1389,1.1408,1.1446,1.1464,1.1487,1.1518,1.1532,1.1558,1.1578,1.1612,1.1619,1.1637,1.1653,1.1666,1.1678,1.1671,1.1672,1.1672,1.1705,1.17,1.1702,1.1686,1.1686,1.1687,1.1703,0,1.1339,1.1381,1.1406,1.1438,1.1461,1.1484,1.1504,1.153,1.1549,1.1572,1.1593,1.1618,1.1625,1.1636,1.1651,1.1673,1.1685,1.1672,1.1705,1.1705,1.1696,1.1706,1.17,1.1714,1.1706,1.1706,1.1706,0,1.1352,1.138,1.1415,1.1454,1.1464,1.1482,1.1514,1.1535,1.1565,1.1579,1.1601,1.1618,1.1643,1.1645,1.1681,1.1672,1.1687,1.1701,1.1702,1.1705,1.1705,1.1709,1.1718,1.1721,1.171,1.171,1.171,0,1.1339,1.1385,1.1413,1.1428,1.1473,1.1485,1.1505,1.1535,1.1553,1.1581,1.1593,1.1623,1.164,1.1663,1.1688,1.1686,1.1722,1.1725,1.1735,1.1734,1.174,1.1739,1.1752,1.175,1.175,1.175,1.175,0,1.1345,1.1365,1.1408,1.1424,1.1449,1.1478,1.1501,1.1522,1.155,1.1572,1.1594,1.1613,1.1645,1.1669,1.1689,1.1717,1.1724,1.1736,1.1741,1.1734,1.1732,1.1743,1.1743,1.1751,1.175,1.175,1.175,0,1.1333,1.1362,1.1394,1.1436,1.1447,1.1463,1.1499,1.1517,1.1539,1.1566,1.1574,1.1609,1.1639,1.1667,1.1706,1.1719,1.1748,1.1754,1.1738,1.174,1.1748,1.1747,1.1768,1.1773,1.1768,1.1768,1.1768,0,1.1334,1.1351,1.1396,1.1413,1.1432,1.1458,1.1478,1.1508,1.1527,1.1566,1.1579,1.1611,1.1638,1.1685,1.1713,1.1744,1.1752,1.1757,1.1756,1.1749,1.1752,1.1751,1.1753,1.1756,1.1756,1.1756,1.1756,0,1.1333,1.1348,1.1375,1.1409,1.1432,1.146,1.1488,1.15,1.1536,1.1556,1.1588,1.161,1.1652,1.1683,1.1718,1.1738,1.1753,1.1756,1.176,1.1753,1.1743,1.1749,1.1737,1.1755,1.1755,1.1755,1.1755,1.1755,1.1328,1.1345,1.138,1.1411,1.1436,1.1463,1.1482,1.1508,1.1536,1.1573,1.1589,1.1622,1.1655,1.1704,1.1724,1.175,1.1753,1.1759,1.176,1.1761,1.176,1.174,1.1757,1.1757,1.1757,1.1757,1.1757,0,1.1329,1.1354,1.1382,1.1422,1.1447,1.1461,1.1494,1.1513,1.1542,1.1572,1.16,1.1637,1.1669,1.1702,1.1736,1.1751,1.1758,1.1758,1.1757,1.1762,1.1755,1.1748,1.1752,1.1752,1.1752,1.1752,1.1752,1.1752,1.1333,1.1363,1.1382,1.1426,1.145,1.1483,1.1501,1.1526,1.1551,1.1592,1.162,1.1642,1.1673,1.171,1.1741,1.175,1.1761,1.1759,1.177,1.1762,1.1762,1.1762,1.1756,1.1761,1.1761,1.1775,1.1775,1.1775]}]]